24.8°F
Current conditions from King Hill
Updated every 5 minutes
 
  Monday December 22, 2014

Station Historical Data
Daily Summary for November 19, 2011 Units:  Metric    English   Both
« Previous Day
Next Day »
Daily Weekly Monthly Yearly Custom
  High: Low: Average:
Temperature: 9.2 °C 1.6 °C 5.3 °C
Dew Point: -4.1 °C -7 °C -5.9 °C
Humidity: 58% 36% 45%
Wind Speed: 24.1km/h 6.4km/h 14.2km/h
Wind Gust: 48.3km/h - -
Wind- - SSW
Pressure: 1021.9 hPa 1015.8 hPa -
Precipitation: 0 mm    
Historical Graphs
 
 
Tabular Data for November 19, 2011
Time Temperature Dew Point Pressure Wind Wind Speed Wind Gust Humidity Daily Rainfall
00:04 1.6 °C -6.1 °C 1021.9 hPa SSW 14.5 km/h 37 km/h 57% 0 mm
00:09 1.6 °C -6.1 °C 1021.9 hPa SSW 17.7 km/h 37 km/h 57% 0 mm
00:14 1.6 °C -6 °C 1021.9 hPa SSW 16.1 km/h 33.8 km/h 57% 0 mm
00:19 1.7 °C -5.7 °C 1021.9 hPa SSW 11.3 km/h 29 km/h 58% 0 mm
00:24 1.7 °C -5.7 °C 1021.9 hPa SSW 9.7 km/h 38.6 km/h 58% 0 mm
00:29 1.7 °C -5.7 °C 1021.9 hPa SSW 14.5 km/h 38.6 km/h 58% 0 mm
00:34 1.8 °C -5.6 °C 1021.6 hPa SSW 9.7 km/h 30.6 km/h 58% 0 mm
00:39 1.8 °C -5.6 °C 1021.6 hPa SSW 17.7 km/h 35.4 km/h 58% 0 mm
00:44 1.8 °C -5.6 °C 1021.6 hPa SSW 12.9 km/h 35.4 km/h 58% 0 mm
00:49 1.9 °C -5.4 °C 1021.6 hPa SSW 17.7 km/h 30.6 km/h 58% 0 mm
00:54 1.9 °C -5.4 °C 1021.6 hPa SSW 12.9 km/h 30.6 km/h 58% 0 mm
00:59 2 °C -5.6 °C 1021.6 hPa SSW 19.3 km/h 32.2 km/h 57% 0 mm
01:04 2.1 °C -5.6 °C 1021.2 hPa SSW 17.7 km/h 37 km/h 57% 0 mm
01:09 2.1 °C -5.8 °C 1021.2 hPa SSW 12.9 km/h 37 km/h 56% 0 mm
01:14 2.2 °C -5.7 °C 1021.2 hPa SSW 17.7 km/h 37 km/h 56% 0 mm
01:19 2.2 °C -5.9 °C 1021.2 hPa SSW 16.1 km/h 35.4 km/h 55% 0 mm
01:24 2.2 °C -5.9 °C 1021.2 hPa SSW 17.7 km/h 43.5 km/h 55% 0 mm
01:29 2.2 °C -5.9 °C 1021.2 hPa SSW 16.1 km/h 43.5 km/h 55% 0 mm
01:34 2.2 °C -5.9 °C 1021.2 hPa SSW 17.7 km/h 35.4 km/h 55% 0 mm
01:39 2.2 °C -6.1 °C 1021.2 hPa SSW 17.7 km/h 35.4 km/h 54% 0 mm
01:44 2.2 °C -5.9 °C 1021.2 hPa SSW 17.7 km/h 38.6 km/h 55% 0 mm
01:49 2.2 °C -5.9 °C 1021.2 hPa SSW 12.9 km/h 38.6 km/h 55% 0 mm
01:54 2.2 °C -5.9 °C 1021.2 hPa SSW 14.5 km/h 37 km/h 55% 0 mm
01:59 2.2 °C -5.9 °C 1021.2 hPa South 17.7 km/h 37 km/h 55% 0 mm
02:04 2.2 °C -5.9 °C 1021.2 hPa SSW 14.5 km/h 43.5 km/h 55% 0 mm
02:09 2.2 °C -5.9 °C 1021.2 hPa SSW 17.7 km/h 43.5 km/h 55% 0 mm
02:14 2.2 °C -6.2 °C 1021.2 hPa SSW 16.1 km/h 35.4 km/h 54% 0 mm
02:19 2.2 °C -6.1 °C 1021.2 hPa SSW 20.9 km/h 40.2 km/h 54% 0 mm
02:24 2.2 °C -6.1 °C 1021.2 hPa SSW 19.3 km/h 40.2 km/h 54% 0 mm
02:29 2.2 °C -6.1 °C 1020.9 hPa SSW 17.7 km/h 41.8 km/h 54% 0 mm
02:34 2.3 °C -6.3 °C 1020.9 hPa SSW 19.3 km/h 41.8 km/h 53% 0 mm
02:39 2.3 °C -6.3 °C 1020.9 hPa SSW 17.7 km/h 35.4 km/h 53% 0 mm
02:44 2.3 °C -6.3 °C 1020.5 hPa SSW 17.7 km/h 46.7 km/h 53% 0 mm
02:54 2.4 °C -6.2 °C 1020.9 hPa SSW 17.7 km/h 48.3 km/h 53% 0 mm
02:59 2.4 °C -6.4 °C 1020.9 hPa SSW 14.5 km/h 37 km/h 52% 0 mm
03:04 2.5 °C -6.4 °C 1020.9 hPa SSW 22.5 km/h 37 km/h 52% 0 mm
03:09 2.6 °C -6.6 °C 1020.9 hPa SSW 20.9 km/h 35.4 km/h 51% 0 mm
03:14 2.6 °C -6.5 °C 1020.9 hPa SSW 17.7 km/h 35.4 km/h 51% 0 mm
03:24 2.7 °C -6.7 °C 1020.9 hPa SSW 16.1 km/h 32.2 km/h 50% 0 mm
03:29 2.7 °C -7 °C 1020.9 hPa SSW 16.1 km/h 38.6 km/h 49% 0 mm
03:34 2.6 °C -6.8 °C 1021.2 hPa SSW 14.5 km/h 38.6 km/h 50% 0 mm
03:39 2.6 °C -6.8 °C 1020.9 hPa SSW 22.5 km/h 38.6 km/h 50% 0 mm
03:44 2.6 °C -6.8 °C 1020.9 hPa SSW 16.1 km/h 38.6 km/h 50% 0 mm
03:49 2.4 °C -6.7 °C 1021.2 hPa SW 17.7 km/h 37 km/h 51% 0 mm
03:54 2.4 °C -6.4 °C 1021.2 hPa SW 16.1 km/h 37 km/h 52% 0 mm
03:59 2.4 °C -6.4 °C 1021.2 hPa SSW 16.1 km/h 40.2 km/h 52% 0 mm
04:04 2.3 °C -6.8 °C 1021.2 hPa SW 20.9 km/h 40.2 km/h 51% 0 mm
04:09 2.3 °C -6.5 °C 1021.2 hPa SSW 16.1 km/h 38.6 km/h 52% 0 mm
04:14 2.3 °C -6.6 °C 1021.2 hPa SW 22.5 km/h 30.6 km/h 52% 0 mm
04:19 2.3 °C -6.6 °C 1021.2 hPa SSW 16.1 km/h 33.8 km/h 52% 0 mm
04:24 2.2 °C -6.6 °C 1021.2 hPa SSW 17.7 km/h 33.8 km/h 52% 0 mm
04:29 2.2 °C -6.4 °C 1021.2 hPa SSW 9.7 km/h 32.2 km/h 53% 0 mm
04:34 2.2 °C -6.4 °C 1021.2 hPa SSW 14.5 km/h 30.6 km/h 53% 0 mm
04:39 2.2 °C -6.4 °C 1021.2 hPa SW 9.7 km/h 30.6 km/h 53% 0 mm
04:44 2.2 °C -6.7 °C 1021.2 hPa SSW 14.5 km/h 33.8 km/h 52% 0 mm
04:49 2.1 °C -6.7 °C 1021.2 hPa SSW 11.3 km/h 33.8 km/h 52% 0 mm
04:54 2.1 °C -6.8 °C 1021.2 hPa SSW 9.7 km/h 29 km/h 52% 0 mm
04:59 2.1 °C -6.7 °C 1021.6 hPa SSW 14.5 km/h 29 km/h 52% 0 mm
05:04 2.1 °C -6.7 °C 1021.9 hPa SW 14.5 km/h 25.7 km/h 52% 0 mm
05:09 2.1 °C -6.6 °C 1021.9 hPa SSW 11.3 km/h 27.4 km/h 53% 0 mm
05:14 2.1 °C -6.6 °C 1021.9 hPa SSW 14.5 km/h 33.8 km/h 53% 0 mm
05:19 2 °C -6.6 °C 1021.9 hPa SSW 11.3 km/h 33.8 km/h 53% 0 mm
05:24 2 °C -6.6 °C 1021.6 hPa SSW 16.1 km/h 29 km/h 53% 0 mm
05:29 1.9 °C -6.6 °C 1021.6 hPa SSW 9.7 km/h 29 km/h 53% 0 mm
05:34 2 °C -6.6 °C 1021.6 hPa SSW 17.7 km/h 29 km/h 53% 0 mm
05:39 2.1 °C -6.6 °C 1021.6 hPa SSW 14.5 km/h 30.6 km/h 53% 0 mm
05:44 2.1 °C -6.6 °C 1021.2 hPa SSW 16.1 km/h 32.2 km/h 53% 0 mm
05:49 2.1 °C -6.6 °C 1021.2 hPa SSW 12.9 km/h 32.2 km/h 53% 0 mm
05:54 2.1 °C -6.7 °C 1021.2 hPa SW 16.1 km/h 29 km/h 52% 0 mm
05:59 2.2 °C -6.7 °C 1021.2 hPa SW 14.5 km/h 32.2 km/h 52% 0 mm
06:04 2.2 °C -6.7 °C 1021.6 hPa SSW 11.3 km/h 32.2 km/h 52% 0 mm
06:09 2.2 °C -6.7 °C 1021.6 hPa SSW 12.9 km/h 37 km/h 52% 0 mm
06:14 2.2 °C -6.7 °C 1021.6 hPa SSW 16.1 km/h 37 km/h 52% 0 mm
06:19 2.2 °C -6.6 °C 1021.2 hPa SSW 12.9 km/h 35.4 km/h 52% 0 mm
06:24 2.2 °C -6.6 °C 1021.2 hPa SSW 14.5 km/h 35.4 km/h 52% 0 mm
06:29 2.2 °C -6.6 °C 1021.2 hPa SSW 17.7 km/h 35.4 km/h 52% 0 mm
06:34 2.2 °C -6.9 °C 1020.9 hPa SSW 12.9 km/h 35.4 km/h 51% 0 mm
06:39 2.2 °C -6.9 °C 1021.2 hPa SSW 17.7 km/h 35.4 km/h 51% 0 mm
06:44 2.2 °C -6.9 °C 1021.6 hPa SSW 12.9 km/h 29 km/h 51% 0 mm
06:49 2.3 °C -6.8 °C 1021.6 hPa SW 11.3 km/h 35.4 km/h 51% 0 mm
06:54 2.3 °C -6.8 °C 1021.6 hPa SW 12.9 km/h 35.4 km/h 51% 0 mm
06:59 2.3 °C -6.8 °C 1021.6 hPa SSW 14.5 km/h 33.8 km/h 51% 0 mm
07:04 2.3 °C -6.8 °C 1021.6 hPa SW 12.9 km/h 33.8 km/h 51% 0 mm
07:09 2.3 °C -6.8 °C 1021.6 hPa SSW 14.5 km/h 29 km/h 51% 0 mm
07:14 2.3 °C -6.8 °C 1021.6 hPa SSW 9.7 km/h 27.4 km/h 51% 0 mm
07:19 2.3 °C -6.8 °C 1021.6 hPa SSW 12.9 km/h 27.4 km/h 51% 0 mm
07:24 2.3 °C -6.8 °C 1021.9 hPa SSW 12.9 km/h 37 km/h 51% 0 mm
07:29 2.4 °C -6.7 °C 1021.9 hPa SSW 12.9 km/h 37 km/h 51% 0 mm
07:34 2.4 °C -6.7 °C 1021.9 hPa SSW 11.3 km/h 29 km/h 51% 0 mm
07:44 2.4 °C -7 °C 1021.6 hPa SSW 12.9 km/h 29 km/h 50% 0 mm
07:49 2.4 °C -7 °C 1021.6 hPa SSW 12.9 km/h 32.2 km/h 50% 0 mm
07:54 2.4 °C -7 °C 1021.9 hPa SSW 12.9 km/h 32.2 km/h 50% 0 mm
07:59 2.4 °C -7 °C 1021.9 hPa SSW 9.7 km/h 27.4 km/h 50% 0 mm
08:04 2.5 °C -6.9 °C 1021.9 hPa SSW 16.1 km/h 30.6 km/h 50% 0 mm
08:09 2.6 °C -6.8 °C 1021.9 hPa SW 9.7 km/h 30.6 km/h 50% 0 mm
08:14 2.7 °C -7 °C 1021.9 hPa SSW 9.7 km/h 25.7 km/h 49% 0 mm
08:19 2.7 °C -7 °C 1021.9 hPa SSW 16.1 km/h 27.4 km/h 49% 0 mm
08:24 2.7 °C -6.9 °C 1021.9 hPa SSW 11.3 km/h 29 km/h 49% 0 mm
08:34 2.8 °C -6.8 °C 1021.9 hPa SSW 12.9 km/h 29 km/h 49% 0 mm
08:39 2.9 °C -6.8 °C 1021.9 hPa SSW 12.9 km/h 24.1 km/h 49% 0 mm
08:44 2.9 °C -6.7 °C 1021.9 hPa SSW 11.3 km/h 30.6 km/h 49% 0 mm
08:49 2.9 °C -6.7 °C 1021.9 hPa SSW 16.1 km/h 33.8 km/h 49% 0 mm
08:54 2.9 °C -7 °C 1021.9 hPa SW 16.1 km/h 33.8 km/h 48% 0 mm
08:59 3 °C -6.7 °C 1021.9 hPa SSW 11.3 km/h 22.5 km/h 49% 0 mm
09:04 3.1 °C -6.8 °C 1021.6 hPa SSW 14.5 km/h 29 km/h 48% 0 mm
09:09 3.2 °C -6.7 °C 1021.9 hPa SSW 14.5 km/h 29 km/h 48% 0 mm
09:14 3.3 °C -6.7 °C 1021.9 hPa SSW 8 km/h 25.7 km/h 48% 0 mm
09:19 3.4 °C -6.6 °C 1021.9 hPa SW 8 km/h 25.7 km/h 48% 0 mm
09:24 3.7 °C -6.3 °C 1021.9 hPa SW 11.3 km/h 25.7 km/h 48% 0 mm
09:29 4 °C -6.6 °C 1021.9 hPa SW 17.7 km/h 29 km/h 46% 0 mm
09:34 4.3 °C -6.3 °C 1021.9 hPa SSW 11.3 km/h 29 km/h 46% 0 mm
09:39 4.4 °C -6.5 °C 1021.9 hPa SW 14.5 km/h 32.2 km/h 45% 0 mm
09:49 4.9 °C -6.3 °C 1021.6 hPa SSW 17.7 km/h 38.6 km/h 44% 0 mm
09:54 4.8 °C -6.4 °C 1021.6 hPa SSW 14.5 km/h 38.6 km/h 44% 0 mm
09:59 4.5 °C -6.7 °C 1021.6 hPa SSW 12.9 km/h 30.6 km/h 44% 0 mm
10:04 4.7 °C -6.3 °C 1021.2 hPa SSW 11.3 km/h 32.2 km/h 45% 0 mm
10:09 4.9 °C -6.3 °C 1021.2 hPa SSW 11.3 km/h 32.2 km/h 44% 0 mm
10:14 5 °C -6.6 °C 1020.9 hPa SSW 17.7 km/h 30.6 km/h 43% 0 mm
10:19 4.9 °C -6.6 °C 1021.2 hPa SW 16.1 km/h 32.2 km/h 43% 0 mm
10:24 4.8 °C -6.4 °C 1020.5 hPa SSW 14.5 km/h 32.2 km/h 44% 0 mm
10:29 4.9 °C -6.6 °C 1020.9 hPa SSW 17.7 km/h 32.2 km/h 43% 0 mm
10:34 5.4 °C -6.4 °C 1020.5 hPa SSW 17.7 km/h 30.6 km/h 42% 0 mm
10:39 5.8 °C -6.2 °C 1020.5 hPa SSW 11.3 km/h 30.6 km/h 42% 0 mm
10:49 5.9 °C -6.1 °C 1020.5 hPa SW 8 km/h 33.8 km/h 42% 0 mm
10:54 6.4 °C -6.2 °C 1020.5 hPa SSW 11.3 km/h 33.8 km/h 40% 0 mm
10:59 6.5 °C -6.1 °C 1020.2 hPa SSW 14.5 km/h 29 km/h 40% 0 mm
11:04 6.4 °C -6.6 °C 1020.2 hPa SW 20.9 km/h 29 km/h 39% 0 mm
11:09 6.2 °C -6.1 °C 1020.2 hPa SSW 11.3 km/h 30.6 km/h 41% 0 mm
11:14 6.3 °C -6.6 °C 1020.2 hPa SSW 16.1 km/h 30.6 km/h 39% 0 mm
11:19 6.7 °C -6.3 °C 1020.2 hPa SW 16.1 km/h 29 km/h 39% 0 mm
11:24 6.9 °C -6.1 °C 1020.2 hPa SSW 16.1 km/h 32.2 km/h 39% 0 mm
11:29 7.1 °C -6.3 °C 1020.2 hPa SSW 19.3 km/h 35.4 km/h 38% 0 mm
11:34 6.8 °C -6.5 °C 1019.9 hPa SSW 16.1 km/h 35.4 km/h 38% 0 mm
11:39 6.9 °C -6.4 °C 1019.9 hPa SSW 22.5 km/h 38.6 km/h 38% 0 mm
11:44 7 °C -6.3 °C 1019.9 hPa SSW 16.1 km/h 38.6 km/h 38% 0 mm
11:49 6.9 °C -6.4 °C 1019.9 hPa SW 17.7 km/h 33.8 km/h 38% 0 mm
11:54 7.2 °C -5.8 °C 1019.9 hPa SW 12.9 km/h 33.8 km/h 39% 0 mm
11:59 7.4 °C -6 °C 1019.9 hPa SW 19.3 km/h 35.4 km/h 38% 0 mm
12:04 7.4 °C -6.3 °C 1019.9 hPa SW 16.1 km/h 35.4 km/h 37% 0 mm
12:09 6.9 °C -6.8 °C 1019.9 hPa SSW 17.7 km/h 32.2 km/h 37% 0 mm
12:14 6.9 °C -5.7 °C 1019.9 hPa SSW 14.5 km/h 32.2 km/h 40% 0 mm
12:19 7.4 °C -6 °C 1019.9 hPa SSW 12.9 km/h 29 km/h 38% 0 mm
12:24 8.1 °C -5.8 °C 1019.9 hPa SSW 12.9 km/h 25.7 km/h 37% 0 mm
12:29 7.5 °C -6.6 °C 1019.9 hPa SW 17.7 km/h 30.6 km/h 36% 0 mm
12:34 7.1 °C -6.3 °C 1019.9 hPa SSW 11.3 km/h 30.6 km/h 38% 0 mm
12:39 7.7 °C -6.1 °C 1019.9 hPa SSW 17.7 km/h 25.7 km/h 37% 0 mm
12:44 7.7 °C -6.4 °C 1019.9 hPa SW 16.1 km/h 35.4 km/h 36% 0 mm
12:49 7.7 °C -6.4 °C 1019.9 hPa SW 16.1 km/h 35.4 km/h 36% 0 mm
12:54 7.8 °C -6.3 °C 1019.5 hPa SW 17.7 km/h 29 km/h 36% 0 mm
12:59 8.2 °C -5.7 °C 1019.5 hPa SW 11.3 km/h 27.4 km/h 37% 0 mm
13:04 8.5 °C -5.7 °C 1019.5 hPa SSW 14.5 km/h 24.1 km/h 36% 0 mm
13:09 8.1 °C -6.1 °C 1019.5 hPa SSW 17.7 km/h 30.6 km/h 36% 0 mm
13:14 7.9 °C -5.9 °C 1019.5 hPa SSW 11.3 km/h 30.6 km/h 37% 0 mm
13:19 7.8 °C -6 °C 1019.2 hPa SSW 11.3 km/h 25.7 km/h 37% 0 mm
13:24 8 °C -5.8 °C 1019.2 hPa SSW 12.9 km/h 25.7 km/h 37% 0 mm
13:29 7.6 °C -5.8 °C 1019.2 hPa SSW 11.3 km/h 20.9 km/h 38% 0 mm
13:34 7.2 °C -5.8 °C 1019.2 hPa SSW 9.7 km/h 19.3 km/h 39% 0 mm
13:39 7.6 °C -5.5 °C 1018.8 hPa SW 6.4 km/h 19.3 km/h 39% 0 mm
13:44 8 °C -5.8 °C 1018.8 hPa SSW 14.5 km/h 22.5 km/h 37% 0 mm
13:49 8.1 °C -5.4 °C 1018.8 hPa SSW 8 km/h 22.5 km/h 38% 0 mm
13:54 8 °C -5.8 °C 1018.8 hPa SSW 11.3 km/h 22.5 km/h 37% 0 mm
13:59 8.2 °C -5.7 °C 1018.8 hPa SSW 14.5 km/h 27.4 km/h 37% 0 mm
14:04 8.3 °C -5.6 °C 1018.5 hPa SW 8 km/h 27.4 km/h 37% 0 mm
14:09 8 °C -5.8 °C 1018.5 hPa SSW 11.3 km/h 25.7 km/h 37% 0 mm
14:14 8.4 °C -5.1 °C 1018.5 hPa SSW 9.7 km/h 19.3 km/h 38% 0 mm
14:19 8.8 °C -5.1 °C 1018.5 hPa SW 8 km/h 20.9 km/h 37% 0 mm
14:24 9 °C -5.3 °C 1018.5 hPa SSW 14.5 km/h 27.4 km/h 36% 0 mm
14:29 8.9 °C -5.3 °C 1018.5 hPa SSW 12.9 km/h 27.4 km/h 36% 0 mm
14:34 9.2 °C -5.1 °C 1018.5 hPa SSW 9.7 km/h 24.1 km/h 36% 0 mm
14:39 9.1 °C -5.2 °C 1018.5 hPa SSW 11.3 km/h 25.7 km/h 36% 0 mm
14:44 9.1 °C -5.2 °C 1018.5 hPa SSW 9.7 km/h 25.7 km/h 36% 0 mm
14:49 8.8 °C -5.4 °C 1018.2 hPa SSW 11.3 km/h 25.7 km/h 36% 0 mm
14:54 8.7 °C -5.6 °C 1018.2 hPa SSW 11.3 km/h 25.7 km/h 36% 0 mm
14:59 8.6 °C -5.7 °C 1018.2 hPa SSW 12.9 km/h 25.7 km/h 36% 0 mm
15:04 8.3 °C -5.9 °C 1018.2 hPa SSW 11.3 km/h 24.1 km/h 36% 0 mm
15:09 8.1 °C -5.7 °C 1018.2 hPa SSW 11.3 km/h 25.7 km/h 37% 0 mm
15:14 8.1 °C -5.7 °C 1018.2 hPa SSW 11.3 km/h 25.7 km/h 37% 0 mm
15:19 8.2 °C -5.7 °C 1018.2 hPa SSW 9.7 km/h 24.1 km/h 37% 0 mm
15:24 8.2 °C -5.6 °C 1018.2 hPa SSW 6.4 km/h 24.1 km/h 37% 0 mm
15:34 8.2 °C -5.6 °C 1018.2 hPa SW 11.3 km/h 19.3 km/h 37% 0 mm
15:39 8.2 °C -6 °C 1018.2 hPa SSW 11.3 km/h 25.7 km/h 36% 0 mm
15:44 8.1 °C -5.8 °C 1018.2 hPa South 8 km/h 25.7 km/h 37% 0 mm
15:49 7.9 °C -5.9 °C 1017.8 hPa SSW 11.3 km/h 22.5 km/h 37% 0 mm
15:54 7.8 °C -5.9 °C 1017.8 hPa South 11.3 km/h 25.7 km/h 37% 0 mm
15:59 7.7 °C -6.1 °C 1017.8 hPa South 9.7 km/h 25.7 km/h 37% 0 mm
16:04 7.7 °C -6.1 °C 1017.8 hPa SSW 11.3 km/h 24.1 km/h 37% 0 mm
16:09 7.6 °C -5.8 °C 1017.8 hPa SSW 12.9 km/h 25.7 km/h 38% 0 mm
16:14 7.6 °C -5.8 °C 1017.5 hPa SSW 11.3 km/h 27.4 km/h 38% 0 mm
16:19 7.6 °C -5.8 °C 1017.5 hPa SSW 11.3 km/h 29 km/h 38% 0 mm
16:24 7.5 °C -5.9 °C 1017.5 hPa SSW 11.3 km/h 29 km/h 38% 0 mm
16:29 7.4 °C -6 °C 1017.5 hPa SSW 12.9 km/h 25.7 km/h 38% 0 mm
16:34 7.4 °C -6 °C 1017.5 hPa SSW 9.7 km/h 25.7 km/h 38% 0 mm
16:39 7.5 °C -5.9 °C 1017.5 hPa SSW 11.3 km/h 22.5 km/h 38% 0 mm
16:44 7.6 °C -5.8 °C 1017.8 hPa SW 11.3 km/h 27.4 km/h 38% 0 mm
16:49 7.5 °C -5.9 °C 1017.5 hPa SSW 8 km/h 27.4 km/h 38% 0 mm
16:54 7.4 °C -5.6 °C 1017.8 hPa SSW 9.7 km/h 22.5 km/h 39% 0 mm
16:59 7.5 °C -5.9 °C 1017.5 hPa SSW 14.5 km/h 27.4 km/h 38% 0 mm
17:04 7.6 °C -5.8 °C 1017.8 hPa SSW 14.5 km/h 32.2 km/h 38% 0 mm
17:09 7.6 °C -5.8 °C 1017.8 hPa SSW 16.1 km/h 32.2 km/h 38% 0 mm
17:14 7.7 °C -5.4 °C 1017.8 hPa SSW 12.9 km/h 29 km/h 39% 0 mm
17:19 7.7 °C -5.4 °C 1017.8 hPa SSW 8 km/h 27.4 km/h 39% 0 mm
17:24 7.8 °C -5.3 °C 1017.8 hPa SSW 17.7 km/h 33.8 km/h 39% 0 mm
17:34 7.8 °C -5.3 °C 1017.8 hPa SSW 16.1 km/h 35.4 km/h 39% 0 mm
17:39 7.9 °C -5.2 °C 1018.2 hPa SSW 9.7 km/h 35.4 km/h 39% 0 mm
17:44 7.9 °C -5.2 °C 1017.8 hPa SSW 16.1 km/h 32.2 km/h 39% 0 mm
17:49 8 °C -5.1 °C 1018.2 hPa SSW 14.5 km/h 35.4 km/h 39% 0 mm
17:54 8 °C -5.1 °C 1018.2 hPa SSW 14.5 km/h 35.4 km/h 39% 0 mm
17:59 8.1 °C -5.1 °C 1018.2 hPa SSW 16.1 km/h 32.2 km/h 39% 0 mm
18:04 8.1 °C -5.1 °C 1017.8 hPa SSW 16.1 km/h 32.2 km/h 39% 0 mm
18:09 8.1 °C -5 °C 1017.8 hPa SSW 19.3 km/h 37 km/h 39% 0 mm
18:14 8.1 °C -5.1 °C 1017.8 hPa SSW 6.4 km/h 37 km/h 39% 0 mm
18:19 8 °C -5.1 °C 1017.8 hPa SSW 9.7 km/h 32.2 km/h 39% 0 mm
18:24 7.9 °C -5.2 °C 1017.8 hPa SSW 12.9 km/h 32.2 km/h 39% 0 mm
18:29 7.9 °C -5.2 °C 1017.8 hPa SSW 11.3 km/h 33.8 km/h 39% 0 mm
18:34 7.9 °C -4.9 °C 1017.8 hPa SSW 12.9 km/h 33.8 km/h 40% 0 mm
18:39 7.9 °C -4.9 °C 1017.8 hPa SSW 11.3 km/h 27.4 km/h 40% 0 mm
18:44 7.9 °C -4.8 °C 1017.8 hPa SSW 11.3 km/h 37 km/h 40% 0 mm
18:49 8 °C -4.8 °C 1017.8 hPa SSW 16.1 km/h 37 km/h 40% 0 mm
18:54 7.9 °C -4.8 °C 1017.8 hPa SSW 11.3 km/h 33.8 km/h 40% 0 mm
18:59 7.9 °C -4.5 °C 1017.8 hPa SSW 16.1 km/h 33.8 km/h 41% 0 mm
19:04 7.8 °C -4.6 °C 1017.8 hPa SSW 11.3 km/h 33.8 km/h 41% 0 mm
19:09 7.8 °C -4.6 °C 1017.8 hPa SSW 16.1 km/h 35.4 km/h 41% 0 mm
19:14 7.8 °C -4.7 °C 1017.8 hPa SSW 14.5 km/h 35.4 km/h 41% 0 mm
19:19 7.7 °C -4.7 °C 1017.5 hPa SSW 14.5 km/h 29 km/h 41% 0 mm
19:24 7.7 °C -4.8 °C 1017.5 hPa SSW 16.1 km/h 32.2 km/h 41% 0 mm
19:29 7.7 °C -4.8 °C 1017.5 hPa SSW 14.5 km/h 32.2 km/h 41% 0 mm
19:34 7.6 °C -4.8 °C 1017.5 hPa SSW 14.5 km/h 32.2 km/h 41% 0 mm
19:39 7.5 °C -4.9 °C 1017.2 hPa SSW 19.3 km/h 35.4 km/h 41% 0 mm
19:44 7.4 °C -4.9 °C 1017.5 hPa SSW 14.5 km/h 35.4 km/h 41% 0 mm
19:49 7.4 °C -4.7 °C 1017.5 hPa SSW 12.9 km/h 29 km/h 42% 0 mm
19:54 7.3 °C -4.7 °C 1017.2 hPa SSW 12.9 km/h 29 km/h 42% 0 mm
19:59 7.3 °C -4.8 °C 1017.2 hPa SSW 16.1 km/h 37 km/h 42% 0 mm
20:04 7.2 °C -4.8 °C 1017.2 hPa SSW 11.3 km/h 37 km/h 42% 0 mm
20:09 7.1 °C -4.9 °C 1017.2 hPa SSW 14.5 km/h 32.2 km/h 42% 0 mm
20:14 7.1 °C -5 °C 1017.2 hPa SSW 16.1 km/h 32.2 km/h 42% 0 mm
20:19 7.1 °C -5 °C 1016.8 hPa SSW 12.9 km/h 32.2 km/h 42% 0 mm
20:24 7.1 °C -5 °C 1016.8 hPa SSW 14.5 km/h 27.4 km/h 42% 0 mm
20:29 7.2 °C -5.2 °C 1016.8 hPa SSW 16.1 km/h 33.8 km/h 41% 0 mm
20:34 7.1 °C -5.3 °C 1016.8 hPa SSW 11.3 km/h 35.4 km/h 41% 0 mm
20:39 7.1 °C -5.3 °C 1016.8 hPa SSW 16.1 km/h 35.4 km/h 41% 0 mm
20:44 7.2 °C -5.2 °C 1016.8 hPa SSW 16.1 km/h 32.2 km/h 41% 0 mm
20:49 7.1 °C -5.3 °C 1016.8 hPa SSW 19.3 km/h 32.2 km/h 41% 0 mm
20:54 7.1 °C -5.3 °C 1016.8 hPa SSW 17.7 km/h 32.2 km/h 41% 0 mm
20:59 7.1 °C -5.3 °C 1016.8 hPa SSW 16.1 km/h 35.4 km/h 41% 0 mm
21:09 7.1 °C -5.3 °C 1016.8 hPa SSW 14.5 km/h 43.5 km/h 41% 0 mm
21:14 7.1 °C -5.3 °C 1016.8 hPa SSW 14.5 km/h 33.8 km/h 41% 0 mm
21:19 7.1 °C -5.3 °C 1016.8 hPa SSW 17.7 km/h 33.8 km/h 41% 0 mm
21:24 7 °C -5.1 °C 1016.8 hPa SSW 17.7 km/h 30.6 km/h 42% 0 mm
21:29 7.1 °C -5.3 °C 1016.8 hPa SSW 22.5 km/h 37 km/h 41% 0 mm
21:34 7.1 °C -5.3 °C 1016.8 hPa SSW 17.7 km/h 37 km/h 41% 0 mm
21:39 7.1 °C -4.9 °C 1016.8 hPa SSW 14.5 km/h 33.8 km/h 42% 0 mm
21:44 7.1 °C -5 °C 1016.8 hPa SSW 16.1 km/h 33.8 km/h 42% 0 mm
21:49 6.9 °C -5.1 °C 1016.8 hPa SSW 11.3 km/h 30.6 km/h 42% 0 mm
21:54 6.9 °C -5.1 °C 1016.8 hPa SSW 16.1 km/h 27.4 km/h 42% 0 mm
21:59 7 °C -5.1 °C 1016.8 hPa SSW 14.5 km/h 29 km/h 42% 0 mm
22:04 7.1 °C -5 °C 1016.8 hPa SSW 24.1 km/h 37 km/h 42% 0 mm
22:09 7.2 °C -4.9 °C 1016.8 hPa SSW 14.5 km/h 37 km/h 42% 0 mm
22:14 7.2 °C -4.8 °C 1016.8 hPa SSW 16.1 km/h 30.6 km/h 42% 0 mm
22:19 7.2 °C -4.8 °C 1016.8 hPa SSW 12.9 km/h 30.6 km/h 42% 0 mm
22:24 7.1 °C -4.6 °C 1016.8 hPa SSW 11.3 km/h 29 km/h 43% 0 mm
22:29 7.1 °C -4.7 °C 1016.8 hPa SSW 14.5 km/h 29 km/h 43% 0 mm
22:34 7.1 °C -4.7 °C 1016.8 hPa SSW 11.3 km/h 37 km/h 43% 0 mm
22:39 7.1 °C -4.7 °C 1016.8 hPa SSW 14.5 km/h 37 km/h 43% 0 mm
22:44 7.1 °C -4.6 °C 1016.8 hPa SSW 12.9 km/h 30.6 km/h 43% 0 mm
22:49 7.1 °C -4.6 °C 1016.8 hPa SSW 16.1 km/h 30.6 km/h 43% 0 mm
22:54 7.1 °C -4.6 °C 1016.8 hPa SSW 17.7 km/h 35.4 km/h 43% 0 mm
22:59 7.1 °C -4.6 °C 1016.8 hPa SSW 12.9 km/h 35.4 km/h 43% 0 mm
23:04 7.1 °C -4.6 °C 1016.5 hPa SSW 9.7 km/h 30.6 km/h 43% 0 mm
23:09 7.1 °C -4.7 °C 1016.5 hPa SSW 12.9 km/h 30.6 km/h 43% 0 mm
23:14 7.1 °C -4.6 °C 1016.1 hPa SSW 16.1 km/h 35.4 km/h 43% 0 mm
23:19 7.2 °C -4.6 °C 1016.5 hPa SSW 16.1 km/h 35.4 km/h 43% 0 mm
23:24 7.1 °C -4.6 °C 1016.1 hPa SSW 14.5 km/h 32.2 km/h 43% 0 mm
23:29 7.1 °C -4.4 °C 1016.1 hPa SSW 14.5 km/h 30.6 km/h 44% 0 mm
23:34 7.1 °C -4.7 °C 1015.8 hPa SSW 14.5 km/h 30.6 km/h 43% 0 mm
23:39 7.1 °C -4.7 °C 1015.8 hPa SSW 17.7 km/h 30.6 km/h 43% 0 mm
23:44 7.1 °C -4.4 °C 1015.8 hPa SSW 11.3 km/h 30.6 km/h 44% 0 mm
23:54 6.9 °C -4.2 °C 1015.8 hPa SSW 16.1 km/h 29 km/h 45% 0 mm
23:59 6.8 °C -4.1 °C 1015.8 hPa SSW 11.3 km/h 29 km/h 46% 0 mm
Westford Weather
Compliments of Weather Underground

 
 
Current Radar Loop:

Copyright © WestfordWeather.net 2007-2014. All rights reserved.